OPS 4682 DEB, 38455

Orbit data source: Space-Track

OPS 4682 DEB, 38455 is space debris in LEO originally from a launch on Sat, 03 Apr 1965 UTC launched from the Air Force Western Test Range (AFWTR). Debris objects in space refer to the collection of defunct objects orbiting the Earth. Examples of debris include non-operational satellites, rocket bodies, and fragments generated from explosions, collisions, or faulty payload assembly.

Loading next visibility...
Identifier
38455, 1965-027FL
Orbit
LEO
Country
Flag of USUS
Related business
Manufacturer
Unknown
Mission
Spacecraft
Bus & Motor
Unknown
Mass
Unknown
Launch date (UTC)
1965-04-03 (61 years ago)
Launch vehicle
Unknown
Launch site
Air Force Western Test Range (AFWTR)
Object type
Payload
Rocket body
Debris
Shape & HBR
Unknown shape, 0.1 m
Radar Cross Section
Small (<0.1 m²)

Expand to show TLE details & history
Last TLE update: 5 days ago

TLE from 5 days ago
0 OPS 4682 DEB
1 38455U 65027FL  25300.14402401  .00000579  00000-0  19596-2 0  9994
2 38455  90.2391 359.2684 0024398 295.8987  63.9619 12.97786492554285
Epoch: 2025-10-27T03:27Z
TLE epoch observation values (Epoch: 2025-10-27T03:27:23.674Z)
Latitude
-0.00003°
Longitude
-88.33033°
Altitude
1,265.495 km
Speed
7.227 km/s
True Right ascension
23h 57m 04s
True Declination
0° 00' 00"
Sunlit
Object was in full shadow at epoch
Visualization orbit readout
Latitude
Unknown
Longitude
Unknown
Altitude
Unknown
Speed
Unknown
Apparent Right ascension
Unknown
Apparent Declination
Unknown
Sunlit
N/A
Visualization observer readout
Local Sidereal Time
14:48:18
Azimuth
Unknown
Elevation
Unknown
Doppler factor
Unknown
Orbital elements
Apogee altitude
1,286.557 km
Perigee altitude
1,249.247 km
Semi-major axis
7,646.039 km
Eccentricity
0.00244
Inclination
90.2391°
RAAN
359.2684°
Arg. of periapsis
295.8987°
True anomaly
64.21344°
Mean anomaly
63.9619°
Eccentric anomaly
64.08764°
Mean motion
3.2463 °/min
Orbital period
110.9 mins
BSTAR
0.0019596
Loading maneuver chart data...
Computing Atmospheric mass density...
Loading historical data...
Loading historical data...
Loading historical data...
Loading historical data...
Loading historical data...
Loading historical data...
Loading historical data...

Documentation

Showing up to 5 results
|